[Iaude] MPEC C62: 2010 CJ171 [a=2.00,e=0.49,i=7.4,H=21.08]
    mpec at cfa.harvard.edu 
    mpec at cfa.harvard.edu
       
    Tue Feb  6 09:12:02 EST 2024
    
    
  
M.P.E.C. 2024-C62                              Issued 2024 February 6, 14:10 UT
     The Minor Planet Electronic Circulars contain information on unusual
         minor planets, routine data on comets and natural satellites,
         and occasional editorial announcements.  They are published
    on behalf of Division F of the International Astronomical Union by the
          Minor Planet Center, Smithsonian Astrophysical Observatory,
                          Cambridge, MA 02138, U.S.A.
			  
             Prepared using the Tamkin Foundation Computer Network
                              MPC at CFA.HARVARD.EDU
            URL https://www.minorplanetcenter.net/    ISSN 1523-6714
                                   2010 CJ171                                   
                           Revision to MPEC 2010-J74                            
Additional Observations:
     K10CH1J  C2013 10 02.38716900 52 57.128-04 48 25.96         22.80GVEC062F51
     K10CH1J  C2013 10 02.40204200 52 55.849-04 48 34.95         23.53GVEC062F51
     K10CH1J  C2013 10 02.43181500 52 53.357-04 48 53.43         23.60GVEC062F51
     K10CH1J KC2024 01 20.43214209 23 50.998+10 43 50.61         19.31GVEC062F51
     K10CH1J  C2024 02 04.35176209 05 06.516+13 07 59.17         22.11GVEC062F52
     K10CH1J  C2024 02 04.36356509 05 05.422+13 08 07.41         22.69GVEC062F52
     K10CH1J  C2024 02 04.37536909 05 04.329+13 08 15.60         22.32GVEC062F52
     K10CH1J  C2024 02 04.38714809 05 03.229+13 08 23.74         22.19GVEC062F52
Observer details:
F51 Pan-STARRS 1, Haleakala.  Observers J. Herman, T. Lowe, P. Minguez, A.
    Schultz, I. Smith.  Measurers K. Chambers, T. de Boer, J. Fairlamb, H.
    Gao, M. Huber, C.-C. Lin, E. Magnier, Y. Ramanjooloo, R. Wainscoat, R.
    Weryk.  1.8-m Ritchey-Chretien + CCD.
F52 Pan-STARRS 2, Haleakala.  Observers J. Herman, T. Lowe, P. Minguez, A.
    Schultz, I. Smith.  Measurers K. Chambers, T. de Boer, J. Fairlamb, H.
    Gao, M. Huber, C.-C. Lin, E. Magnier, Y. Ramanjooloo, R. Wainscoat, R.
    Weryk.  1.8-m Ritchey-Chretien + CCD.
First and last observations above in comparison with prediction:
Residuals in seconds of arc (or two decimals in degrees), reference and Delta-T
131002 F51 0.02- 0.01-    240204 F52 0.11- 0.02-    MPO740202   -0.08 days
Orbital elements:
2010 CJ171                                               Earth MOID = 0.1121 AU
Epoch 2023 Sept. 13.0 TT = JDT 2460200.5                Veres                   
M 255.27895              (2000.0)            P               Q                  
n   0.34959138     Peri.   99.77684     -0.38657609     +0.91963070             
a   1.9957015      Node   147.20666     -0.88849302     -0.35114157             
e   0.4912793      Incl.    7.37876     -0.24726319     -0.17600845             
P   2.82           H   21.08          G   0.15           U   0                  
Residuals in seconds of arc
100213 F51  0.0   0.0     100517 C51  0.3+  0.7+    100630 B09  0.4-  0.2+
100213 F51  0.4+  0.4-    100517 C51  0.2-  0.1-    100630 B09  0.7-  0.9+
100214 691  0.6-  0.1+    100517 C51  0.3+  0.6-    100708 160  0.3+  0.0
100214 691  0.6-  0.2-    100517 C51  0.4-  0.3-    100708 160  0.2+  0.2-
100214 691  0.6-  0.0     100517 C51  0.2-  0.3-    100708 160  0.1+  0.0
100215 691  0.8-  0.2-    100517 C51  0.0   0.4-    100709 160  0.3-  0.2-
100215 691 (0.9-  0.8+)   100517 C51  0.0   0.2-    100709 160  0.3-  0.1-
100215 691  0.5-  0.0     100517 C51  0.1-  0.4+    100709 160  0.1-  0.0
100311 F51  0.0   0.1-    100521 C51  0.1+  0.1-    100710 160  0.3+  0.0
100311 F51  0.1+  0.1+    100526 H21  0.1+  0.7+    100710 160  0.1+  0.1+
100312 F51  0.0   0.1-    100526 H21  0.3-  0.4+    100710 160  0.1+  0.2+
100312 F51  0.1+  0.3-    100526 H21  0.3-  0.2+    100713 H10  0.2+  0.0
100319 F51  0.1+  0.1+    100526 H21  0.4-  1.1-    100713 H10  0.5+  0.3+
100319 F51  0.2+  0.2+    100526 H21  0.0   1.1-    100713 H10  0.0   0.6-
100319 F51  0.2+  0.2-    100602 703  1.2-  0.6+    100713 H10  0.2+  0.2-
100319 F51  0.2-  0.0     100602 703  1.1-  0.5+    100714 F51  0.0   0.1-
100321 703  0.4-  0.0     100602 703  0.5-  1.2-    100715 196  0.1+  0.0
100321 703  0.5+  0.7-    100602 703  0.3+  0.1-    100715 196  0.1+  0.3-
100321 703  0.2-  0.1+    100605 204  0.2+  0.1-    100715 196  0.0   0.4+
100511 703  1.1-  0.3-    100605 204  0.1-  0.1-    100716 196  0.1+  0.3+
100511 703  1.1-  0.9-    100605 204  0.2-  0.2-    100716 587  0.5+  0.4+
100511 703  1.4-  0.7-    100605 204  0.2+  0.1-    100716 587  0.5-  0.4+
100511 703  0.4-  0.3+    100607 C51  0.0   0.2+    100716 587  1.1+  0.1+
100511 703  0.4-  0.3+    100607 C51  0.1+  0.2+    100718 204  0.1-  0.3-
100511 703  0.2-  0.5-    100607 C51  0.2-  0.3+    100718 204  0.1-  0.2-
100511 703  1.6-  0.1+    100607 C51  0.5+  0.1+    100718 204  0.1-  0.1-
100511 703  0.0   0.1+    100607 C51  0.2+  0.1-    100801 H21  0.7+  0.2+
100512 H21  0.0   0.0     100607 C51  0.2+  0.1+    100801 H21  0.7+  0.1+
100512 H21  0.0   0.3-    100607 C51  0.0   0.1-    100801 H21  0.8+  0.5-
100512 H21  0.1+  0.2-    100607 C51  0.1-  0.0     100801 F51  0.0   0.0
100512 H11  0.6+  0.0     100607 C51  0.1+  0.1+    100801 F51  0.0   0.1-
100512 H11  0.1-  0.1-    100608 C51  0.2-  0.1+    100806 F51  0.0   0.0
100512 H11  0.2+  0.6+    100610 G56 (2.2+  0.4+)   100806 F51  0.1-  0.1-
100512 H11  0.8+  0.1-    100610 G56  0.4-  0.3+    100807 I41  0.0   0.2+
100512 854  0.5-  0.1-    100610 H21  0.0   0.2-    100807 I41  0.2+  0.3-
100512 926  0.2+  0.1-    100610 G56  0.0   0.3-    100807 D29 (0.9-  1.9-)
100512 854  1.7+  0.5+    100610 H21  0.0   0.2-    100807 D29  1.0-  0.6-
100512 926  0.4+  0.1+    100610 H21  0.0   0.1-    100807 D29  0.8-  0.0
100512 926  0.2-  0.0     100610 H21  0.0   0.1-    100807 D29  0.5-  0.3-
100512 854  0.5-  1.2+    100612 703  0.2+  0.2+    100831 F51  0.1+  0.0
100512 F65  0.1+  0.1-    100612 703  0.9-  0.4-    100831 F51  0.0   0.1-
100512 F65  0.0   0.2-    100612 703  0.6-  0.6-    100906 F51  0.1+  0.0
100512 F65  0.1-  0.1-    100617 F51  0.1-  0.1-    100912 F51  0.2+  0.1-
100512 F65  0.1+  0.2-    100617 F51  0.0   0.2-    131002 F51  0.2+  0.0
100516 C51  0.2-  0.1+    100624 198  0.3+  0.9-    131002 F51  0.2-  0.3+
100516 C51  1.7+  0.0     100624 198  0.2+  0.7-    131002 F51  0.1-  0.2+
100516 C51  1.2+  0.1-    100624 198  0.7-  0.0     240120 F51  0.2+  0.0
100516 C51  0.2-  0.1-    100624 198  0.4-  0.2-    240204 F52  0.1-  0.0
100516 C51  0.3-  1.4+    100624 198  0.5+  0.3-    240204 F52  0.0   0.0
100516 C51  0.1-  0.0     100630 673  0.4-  0.3-    240204 F52  0.0   0.0
100517 C51  0.2-  0.2-    100630 673  0.1-  0.1+    240204 F52  0.0   0.1-
100517 C51  0.3-  0.2-    100630 673  0.6-  1.1+
100517 C51  0.5+  0.1+    100630 673  0.5-  1.0+
Ephemeris:
2010 CJ171               a,e,i = 2.00, 0.49, 7                   q = 1.0153
Date    TT    R. A. (2000) Decl.     Delta      r    Elong.  Phase     V
2024 01 07    09 33 22.9 +09 29 39   1.1616  2.0349   143.0    16.9    23.8
...
2024 01 22    09 22 15.3 +10 56 05   0.9875  1.9450   161.1     9.4    23.1
...
2024 01 30    09 12 41.3 +12 09 34   0.9157  1.8954   171.5     4.4    22.7
...
2024 02 05    09 04 08.0 +13 15 31   0.8725  1.8575   176.6     1.8    22.4
2024 02 06    09 02 37.0 +13 27 15   0.8662  1.8511   176.1     2.1    22.3
2024 02 07    09 01 04.8 +13 39 10   0.8602  1.8447   175.2     2.6    22.4
...
2024 02 13    08 51 32.9 +14 53 38   0.8296  1.8061   167.5     6.8    22.5
...
2024 02 21    08 38 43.5 +16 36 27   0.8031  1.7537   156.2    13.2    22.6
...
2024 03 07    08 18 28.6 +19 36 24   0.7904  1.6534   135.8    24.7    22.8
A. U. Tomatic                (C) Copyright 2024 MPC           M.P.E.C. 2024-C62
    
    
More information about the Iaude
mailing list